Location: Madingley
(52.2167°N, 0.0500°E)
Time: 20:54:35
(UTC+00:00)

Cosmos 1707 - Pass Details

Date: 15 May 2026
Orbit: 333 x 335 km, 82.5° (Epoch: 8 June)

Event Time Altitude Azimuth Distance (km) Brightness Sun altitude
Exits shadow 20:59:36 - 91° (E) 1,636 4.8 -9.1°
Enters shadow 21:56:26 -68° 191° (SSW) 12,200 9.6 -14.1°
Maximum altitude 22:31:43 85° 282° (WNW) 364 1.8 -16.4°
